| time (UTC) | temp F | wind direction | speed knots | gust knots | rain 1hr in | rain 24hr in | rain mn in | humidity % | barometer mb |
| 20260508004526 | 54 | 0 | 0.0 | 0.0 | 0.00 | 0.05 | 0.00 | 93 | 1009.1 |
| 20260508003605 | 53 | 0 | 0.0 | 0.0 | 0.00 | 0.06 | 0.00 | 92 | 1009.1 |
| 20260508002706 | 54 | 0 | 0.0 | 0.0 | 0.00 | 0.06 | 0.00 | 91 | 1009.0 |
| 20260508001826 | 55 | 7 | 0.0 | 0.9 | 0.00 | 0.07 | 0.00 | 90 | 1009.2 |
| 20260508000926 | 54 | 0 | 0.0 | 0.0 | 0.00 | 0.07 | 0.00 | 90 | 1009.4 |
| 20260508000005 | 54 | 0 | 0.0 | 0.0 | 0.00 | 0.07 | 0.00 | 90 | 1009.5 |
| 20260507235405 | 54 | 0 | 0.0 | 0.0 | 0.00 | 0.07 | 0.00 | 90 | 1009.4 |
| 20260507234506 | 55 | 7 | 0.0 | 0.9 | 0.00 | 0.07 | 0.00 | 89 | 1009.7 |
| 20260507233606 | 54 | 7 | 0.0 | 0.9 | 0.00 | 0.07 | 0.00 | 91 | 1009.9 |
| 20260507232706 | 54 | 7 | 0.0 | 0.9 | 0.00 | 0.08 | 0.00 | 91 | 1009.7 |
| 20260507231805 | 54 | 0 | 0.0 | 0.0 | 0.00 | 0.10 | 0.00 | 91 | 1009.9 |
| 20260507230905 | 54 | 0 | 0.0 | 0.0 | 0.00 | 0.11 | 0.00 | 90 | 1009.9 |
| 20260507230005 | 54 | 7 | 0.0 | 0.9 | 0.00 | 0.13 | 0.00 | 90 | 1009.8 |
| 20260507225426 | 54 | 0 | 0.0 | 0.0 | 0.00 | 0.13 | 0.00 | 89 | 1010.0 |
| 20260507224526 | 55 | 7 | 0.0 | 0.9 | 0.00 | 0.14 | 0.00 | 88 | 1010.0 |
| 20260507223626 | 54 | 0 | 0.0 | 0.0 | 0.00 | 0.14 | 0.00 | 88 | 1010.1 |
| 20260507222705 | 55 | 7 | 0.0 | 0.9 | 0.00 | 0.15 | 0.00 | 87 | 1010.2 |
| 20260507221805 | 54 | 7 | 0.0 | 0.9 | 0.00 | 0.17 | 0.00 | 88 | 1010.4 |
| 20260507220905 | 54 | 7 | 0.0 | 1.7 | 0.00 | 0.19 | 0.00 | 89 | 1010.2 |
| 20260507220005 | 54 | 7 | 0.0 | 1.7 | 0.00 | 0.20 | 0.00 | 89 | 1010.2 |
| 20260507215405 | 54 | 0 | 0.0 | 0.0 | 0.00 | 0.21 | 0.20 | 90 | 1010.2 |
| 20260507214505 | 54 | 0 | 0.0 | 0.0 | 0.00 | 0.22 | 0.20 | 89 | 1010.4 |
| 20260507213605 | 54 | 0 | 0.0 | 0.0 | 0.00 | 0.22 | 0.20 | 89 | 1010.4 |
| 20260507212705 | 54 | 7 | 0.0 | 0.9 | 0.00 | 0.22 | 0.20 | 88 | 1010.3 |
| 20260507211806 | 55 | 7 | 0.0 | 0.9 | 0.00 | 0.22 | 0.20 | 87 | 1010.3 |
| 20260507210912 | 55 | 0 | 0.0 | 0.0 | 0.00 | 0.22 | 0.20 | 86 | 1010.2 |
| 20260507210005 | 56 | 0 | 0.0 | 0.0 | 0.00 | 0.22 | 0.20 | 84 | 1010.2 |
| 20260507205405 | 56 | 0 | 0.0 | 0.0 | 0.00 | 0.22 | 0.20 | 84 | 1010.3 |
| 20260507204520 | 55 | 0 | 0.0 | 0.0 | 0.00 | 0.22 | 0.20 | 85 | 1010.5 |
| 20260507203605 | 56 | 6 | 0.0 | 0.9 | 0.00 | 0.22 | 0.20 | 82 | 1010.3 |
| 20260507202705 | 56 | 7 | 0.0 | 0.9 | 0.00 | 0.22 | 0.20 | 80 | 1010.4 |
| 20260507201805 | 57 | 0 | 0.0 | 0.0 | 0.00 | 0.22 | 0.20 | 80 | 1010.4 |
| 20260507200905 | 57 | 0 | 0.0 | 0.0 | 0.00 | 0.22 | 0.20 | 79 | 1010.4 |
| 20260507200005 | 58 | 7 | 0.0 | 1.7 | 0.00 | 0.22 | 0.20 | 75 | 1010.4 |
| 20260507195405 | 58 | 7 | 0.0 | 1.7 | 0.00 | 0.22 | 0.20 | 75 | 1010.2 |
| 20260507194505 | 59 | 7 | 0.0 | 0.9 | 0.00 | 0.22 | 0.20 | 72 | 1010.3 |
| 20260507193627 | 60 | 7 | 0.0 | 1.7 | 0.00 | 0.22 | 0.20 | 70 | 1010.1 |
| 20260507192728 | 60 | 7 | 0.0 | 1.7 | 0.00 | 0.22 | 0.20 | 68 | 1010.0 |
| 20260507191805 | 61 | 7 | 0.0 | 0.9 | 0.00 | 0.23 | 0.20 | 66 | 1010.2 |
| 20260507190905 | 62 | 7 | 0.0 | 0.9 | 0.00 | 0.23 | 0.20 | 63 | 1010.2 |
| 20260507190006 | 62 | 7 | 0.0 | 1.7 | 0.00 | 0.23 | 0.20 | 65 | 1010.0 |
| 20260507185405 | 62 | 7 | 0.0 | 1.7 | 0.00 | 0.23 | 0.20 | 66 | 1009.9 |
| 20260507184505 | 62 | 7 | 0.0 | 1.7 | 0.00 | 0.23 | 0.20 | 67 | 1009.7 |
| 20260507183605 | 63 | 7 | 0.0 | 2.6 | 0.00 | 0.23 | 0.20 | 68 | 1009.8 |
| 20260507182705 | 63 | 352 | 0.9 | 2.6 | 0.00 | 0.23 | 0.20 | 69 | 1009.9 |
| 20260507181805 | 64 | 317 | 0.0 | 1.7 | 0.00 | 0.23 | 0.20 | 69 | 1009.9 |
| 20260507180905 | 64 | 289 | 0.0 | 1.7 | 0.00 | 0.23 | 0.20 | 68 | 1009.9 |
| 20260507180005 | 65 | 288 | 0.0 | 0.9 | 0.00 | 0.23 | 0.20 | 65 | 1009.8 |
| 20260507175405 | 66 | 288 | 0.0 | 0.9 | 0.00 | 0.23 | 0.20 | 65 | 1009.6 |
| 20260507174512 | 67 | 287 | 0.0 | 1.7 | 0.00 | 0.23 | 0.20 | 62 | 1009.7 |
| 20260507173605 | 69 | 287 | 0.0 | 0.9 | 0.00 | 0.23 | 0.20 | 57 | 1010.0 |
| 20260507172705 | 70 | 287 | 0.0 | 0.9 | 0.00 | 0.23 | 0.20 | 49 | 1009.7 |
| 20260507171805 | 71 | 287 | 0.0 | 1.7 | 0.00 | 0.23 | 0.20 | 46 | 1009.7 |
| 20260507170905 | 72 | 287 | 0.0 | 1.7 | 0.00 | 0.23 | 0.20 | 41 | 1009.3 |
| 20260507170005 | 73 | 287 | 0.0 | 1.7 | 0.00 | 0.23 | 0.20 | 40 | 1009.3 |
| 20260507165405 | 74 | 287 | 0.9 | 3.5 | 0.00 | 0.23 | 0.20 | 40 | 1009.6 |
| 20260507164505 | 74 | 287 | 0.0 | 2.6 | 0.00 | 0.23 | 0.20 | 40 | 1009.3 |
| 20260507163605 | 75 | 287 | 0.0 | 1.7 | 0.00 | 0.23 | 0.20 | 42 | 1009.6 |
| 20260507162708 | 76 | 287 | 0.0 | 3.5 | 0.00 | 0.23 | 0.20 | 40 | 1009.5 |
| 20260507161826 | 76 | 287 | 0.0 | 2.6 | 0.00 | 0.23 | 0.20 | 42 | 1009.5 |
| 20260507160905 | 75 | 310 | 0.9 | 3.5 | 0.00 | 0.23 | 0.20 | 42 | 1009.4 |
| 20260507160005 | 76 | 336 | 0.0 | 2.6 | 0.00 | 0.23 | 0.20 | 42 | 1009.7 |
| 20260507155405 | 76 | 339 | 0.0 | 1.7 | 0.00 | 0.23 | 0.20 | 44 | 1009.7 |
| 20260507154506 | 78 | 339 | 0.0 | 0.9 | 0.00 | 0.23 | 0.20 | 43 | 1009.5 |
| 20260507153605 | 78 | 0 | 0.0 | 0.0 | 0.00 | 0.23 | 0.20 | 41 | 1009.8 |
| 20260507152705 | 75 | 321 | 0.9 | 5.2 | 0.00 | 0.23 | 0.20 | 45 | 1009.6 |
| 20260507151804 | 77 | 287 | 0.0 | 3.5 | 0.00 | 0.23 | 0.20 | 42 | 1009.7 |
| 20260507150904 | 79 | 287 | 0.0 | 1.7 | 0.00 | 0.23 | 0.20 | 43 | 1009.8 |
| 20260507150006 | 77 | 287 | 0.0 | 1.7 | 0.00 | 0.23 | 0.20 | 43 | 1009.9 |
| 20260507145404 | 77 | 286 | 0.0 | 1.7 | 0.00 | 0.23 | 0.20 | 51 | 1009.7 |
| 20260507144504 | 76 | 278 | 0.0 | 2.6 | 0.00 | 0.23 | 0.20 | 45 | 1009.9 |
| 20260507143604 | 77 | 271 | 0.0 | 3.5 | 0.00 | 0.23 | 0.20 | 46 | 1010.1 |
| 20260507142704 | 77 | 250 | 0.9 | 6.1 | 0.00 | 0.23 | 0.20 | 45 | 1010.2 |
| 20260507141805 | 78 | 246 | 0.0 | 6.1 | 0.00 | 0.23 | 0.20 | 44 | 1010.2 |
| 20260507140904 | 80 | 156 | 0.0 | 1.7 | 0.00 | 0.23 | 0.20 | 44 | 1010.6 |
| 20260507140006 | 80 | 156 | 0.0 | 0.9 | 0.00 | 0.23 | 0.20 | 42 | 1010.6 |
| 20260507135405 | 78 | 156 | 0.0 | 1.7 | 0.00 | 0.23 | 0.20 | 44 | 1010.6 |
| 20260507134525 | 79 | 156 | 0.0 | 2.6 | 0.00 | 0.23 | 0.20 | 43 | 1011.1 |
| 20260507133604 | 78 | 189 | 0.0 | 2.6 | 0.00 | 0.23 | 0.20 | 45 | 1011.0 |
| 20260507132708 | 77 | 236 | 0.0 | 1.7 | 0.00 | 0.23 | 0.20 | 47 | 1011.0 |
| 20260507131825 | 78 | 236 | 0.0 | 2.6 | 0.00 | 0.23 | 0.20 | 42 | 1011.2 |
| 20260507130904 | 78 | 0 | 0.0 | 0.0 | 0.00 | 0.23 | 0.20 | 41 | 1011.2 |
| 20260507130005 | 76 | 237 | 0.0 | 0.9 | 0.00 | 0.23 | 0.20 | 42 | 1011.5 |
| 20260507125425 | 76 | 237 | 0.0 | 1.7 | 0.00 | 0.23 | 0.20 | 45 | 1011.3 |
| 20260507124504 | 75 | 237 | 0.9 | 3.5 | 0.00 | 0.23 | 0.20 | 52 | 1011.4 |
| 20260507123625 | 74 | 247 | 0.0 | 1.7 | 0.00 | 0.23 | 0.20 | 49 | 1011.6 |
| 20260507122705 | 75 | 247 | 0.0 | 1.7 | 0.00 | 0.23 | 0.20 | 51 | 1011.6 |
| 20260507121827 | 73 | 247 | 0.0 | 2.6 | 0.00 | 0.23 | 0.20 | 54 | 1011.6 |
| 20260507120904 | 73 | 248 | 0.0 | 1.7 | 0.00 | 0.23 | 0.20 | 54 | 1011.7 |
| 20260507120005 | 73 | 0 | 0.0 | 0.0 | 0.00 | 0.23 | 0.20 | 54 | 1011.3 |
| 20260507115404 | 74 | 239 | 0.0 | 2.6 | 0.00 | 0.23 | 0.20 | 53 | 1011.5 |
| 20260507114504 | 73 | 205 | 0.0 | 1.7 | 0.00 | 0.23 | 0.20 | 53 | 1011.5 |
| 20260507113604 | 73 | 185 | 0.0 | 0.9 | 0.00 | 0.23 | 0.20 | 55 | 1011.5 |
| 20260507112707 | 72 | 219 | 0.0 | 0.9 | 0.00 | 0.23 | 0.20 | 55 | 1011.7 |
| 20260507111804 | 73 | 219 | 0.0 | 0.9 | 0.00 | 0.23 | 0.20 | 57 | 1011.6 |
| 20260507110904 | 73 | 219 | 0.0 | 2.6 | 0.00 | 0.23 | 0.20 | 56 | 1011.4 |
| 20260507110005 | 72 | 197 | 0.0 | 2.6 | 0.00 | 0.23 | 0.20 | 60 | 1011.9 |
| 20260507105412 | 73 | 172 | 0.0 | 1.7 | 0.00 | 0.23 | 0.20 | 62 | 1012.0 |
| 20260507104505 | 72 | 180 | 0.0 | 2.6 | 0.00 | 0.23 | 0.20 | 59 | 1012.0 |
| 20260507103604 | 71 | 0 | 0.0 | 0.0 | 0.00 | 0.23 | 0.20 | 65 | 1012.1 |
| 20260507102704 | 70 | 253 | 0.0 | 0.9 | 0.00 | 0.23 | 0.20 | 63 | 1012.0 |
| 20260507101804 | 71 | 214 | 0.0 | 2.6 | 0.00 | 0.23 | 0.20 | 61 | 1012.2 |
| 20260507100904 | 71 | 241 | 0.0 | 2.6 | 0.00 | 0.23 | 0.20 | 62 | 1012.2 |
| 20260507100025 | 71 | 247 | 0.0 | 1.7 | 0.00 | 0.23 | 0.20 | 64 | 1012.2 |
| 20260507095404 | 71 | 247 | 0.0 | 1.7 | 0.00 | 0.23 | 0.20 | 62 | 1012.0 |
| 20260507094504 | 70 | 248 | 0.0 | 1.7 | 0.00 | 0.23 | 0.20 | 66 | 1012.3 |
| 20260507093607 | 69 | 249 | 0.0 | 0.9 | 0.00 | 0.23 | 0.20 | 66 | 1012.2 |
| 20260507092704 | 69 | 249 | 0.0 | 0.9 | 0.00 | 0.23 | 0.20 | 70 | 1012.2 |
| 20260507091804 | 69 | 250 | 0.0 | 1.7 | 0.00 | 0.23 | 0.20 | 71 | 1012.3 |
| 20260507090904 | 68 | 131 | 0.0 | 1.7 | 0.00 | 0.23 | 0.20 | 72 | 1012.3 |
| 20260507090006 | 68 | 108 | 0.0 | 0.9 | 0.00 | 0.23 | 0.20 | 71 | 1012.5 |
| 20260507085406 | 69 | 108 | 0.0 | 0.9 | 0.00 | 0.23 | 0.20 | 71 | 1012.9 |
| 20260507084509 | 68 | 108 | 0.0 | 1.7 | 0.00 | 0.23 | 0.20 | 73 | 1012.8 |
| 20260507083604 | 69 | 108 | 0.0 | 0.9 | 0.00 | 0.23 | 0.20 | 71 | 1012.8 |
| 20260507082704 | 68 | 108 | 0.0 | 1.7 | 0.00 | 0.23 | 0.20 | 72 | 1012.8 |
| 20260507081806 | 67 | 108 | 0.0 | 0.9 | 0.00 | 0.23 | 0.20 | 74 | 1012.7 |
| 20260507080904 | 67 | 107 | 0.0 | 0.9 | 0.00 | 0.23 | 0.20 | 74 | 1013.0 |
| 20260507080026 | 67 | 0 | 0.0 | 0.0 | 0.00 | 0.23 | 0.20 | 74 | 1012.6 |
| 20260507075404 | 67 | 108 | 0.0 | 0.9 | 0.00 | 0.23 | 0.20 | 77 | 1012.6 |
| 20260507074505 | 67 | 108 | 0.0 | 0.9 | 0.00 | 0.23 | 0.20 | 76 | 1012.7 |
| 20260507073604 | 65 | 107 | 0.0 | 0.9 | 0.00 | 0.23 | 0.20 | 78 | 1012.7 |
| 20260507072704 | 66 | 107 | 0.0 | 0.9 | 0.00 | 0.23 | 0.20 | 76 | 1012.9 |
| 20260507071805 | 66 | 107 | 0.0 | 0.9 | 0.00 | 0.23 | 0.20 | 80 | 1012.6 |
| 20260507070904 | 65 | 0 | 0.0 | 0.0 | 0.00 | 0.23 | 0.20 | 81 | 1013.0 |
| 20260507070009 | 63 | 0 | 0.0 | 0.0 | 0.00 | 0.23 | 0.20 | 84 | 1012.7 |
| 20260507065406 | 61 | 0 | 0.0 | 0.0 | 0.00 | 0.23 | 0.20 | 90 | 1012.8 |
| 20260507064504 | 60 | 0 | 0.0 | 0.0 | 0.00 | 0.23 | 0.20 | 94 | 1012.7 |
| 20260507063604 | 59 | 153 | 0.0 | 1.7 | 0.00 | 0.23 | 0.20 | 96 | 1012.9 |
| 20260507062704 | 59 | 0 | 0.0 | 0.0 | 0.00 | 0.23 | 0.20 | 98 | 1012.7 |
| 20260507061804 | 58 | 0 | 0.0 | 0.0 | 0.00 | 0.23 | 0.20 | 99 | 1012.5 |
| 20260507060906 | 58 | 0 | 0.0 | 0.0 | 0.00 | 0.23 | 0.20 | 99 | 1012.6 |
| 20260507060004 | 58 | 0 | 0.0 | 0.0 | 0.00 | 0.23 | 0.20 | 99 | 1012.5 |
| 20260507055404 | 58 | 0 | 0.0 | 0.0 | 0.00 | 0.23 | 0.20 | 99 | 1012.6 |
| 20260507054504 | 57 | 0 | 0.0 | 0.0 | 0.00 | 0.23 | 0.20 | 99 | 1012.4 |
| 20260507053625 | 57 | 0 | 0.0 | 0.0 | 0.00 | 0.23 | 0.20 | 99 | 1012.3 |
| 20260507052704 | 56 | 0 | 0.0 | 0.0 | 0.00 | 0.23 | 0.20 | 99 | 1012.3 |
| 20260507051804 | 55 | 0 | 0.0 | 0.0 | 0.00 | 0.23 | 0.20 | 99 | 1012.4 |
| 20260507050904 | 54 | 0 | 0.0 | 0.0 | 0.00 | 0.23 | 0.20 | 99 | 1012.4 |
| 20260507050005 | 54 | 0 | 0.0 | 0.0 | 0.00 | 0.23 | 0.20 | 99 | 1012.3 |
| 20260507045404 | 54 | 0 | 0.0 | 0.0 | 0.00 | 0.23 | 0.20 | 99 | 1012.3 |
| 20260507044504 | 54 | 0 | 0.0 | 0.0 | 0.00 | 0.23 | 0.20 | 99 | 1012.4 |
| 20260507043604 | 54 | 0 | 0.0 | 0.0 | 0.00 | 0.23 | 0.20 | 99 | 1012.3 |
| 20260507042707 | 54 | 0 | 0.0 | 0.0 | 0.00 | 0.23 | 0.20 | 99 | 1012.2 |
| 20260507041804 | 54 | 0 | 0.0 | 0.0 | 0.00 | 0.23 | 0.20 | 99 | 1012.1 |
| 20260507040904 | 54 | 0 | 0.0 | 0.0 | 0.00 | 0.23 | 0.20 | 99 | 1011.9 |
| 20260507040005 | 55 | 0 | 0.0 | 0.0 | 0.00 | 0.23 | 0.20 | 99 | 1011.6 |
| 20260507035425 | 55 | 0 | 0.0 | 0.0 | 0.00 | 0.23 | 0.20 | 99 | 1011.6 |
| 20260507034504 | 56 | 0 | 0.0 | 0.0 | 0.00 | 0.23 | 0.20 | 99 | 1012.0 |
| 20260507033625 | 56 | 0 | 0.0 | 0.0 | 0.01 | 0.24 | 0.20 | 99 | 1011.9 |
| 20260507032704 | 56 | 0 | 0.0 | 0.0 | 0.02 | 0.24 | 0.20 | 99 | 1011.7 |
| 20260507031804 | 56 | 0 | 0.0 | 0.0 | 0.03 | 0.24 | 0.20 | 99 | 1011.9 |
| 20260507030904 | 56 | 0 | 0.0 | 0.0 | 0.03 | 0.24 | 0.20 | 99 | 1011.9 |
| 20260507030004 | 56 | 0 | 0.0 | 0.0 | 0.04 | 0.24 | 0.20 | 99 | 1011.9 |
| 20260507025404 | 56 | 0 | 0.0 | 0.0 | 0.04 | 0.24 | 0.20 | 99 | 1012.0 |
| 20260507024504 | 57 | 0 | 0.0 | 0.0 | 0.04 | 0.24 | 0.20 | 99 | 1012.1 |
| 20260507023605 | 57 | 0 | 0.0 | 0.0 | 0.03 | 0.23 | 0.19 | 99 | 1011.5 |
| 20260507022707 | 57 | 0 | 0.0 | 0.0 | 0.02 | 0.22 | 0.18 | 99 | 1011.6 |
| 20260507021806 | 57 | 0 | 0.0 | 0.0 | 0.01 | 0.21 | 0.17 | 99 | 1011.9 |
| 20260507020905 | 57 | 0 | 0.0 | 0.0 | 0.01 | 0.21 | 0.17 | 99 | 1012.1 |
| 20260507020005 | 57 | 0 | 0.0 | 0.0 | 0.00 | 0.20 | 0.16 | 99 | 1012.1 |
| 20260507015404 | 57 | 0 | 0.0 | 0.0 | 0.00 | 0.20 | 0.16 | 99 | 1012.0 |
| 20260507014505 | 57 | 0 | 0.0 | 0.0 | 0.01 | 0.20 | 0.16 | 99 | 1012.0 |
| 20260507013604 | 57 | 0 | 0.0 | 0.0 | 0.02 | 0.20 | 0.16 | 99 | 1012.0 |
| 20260507012704 | 57 | 0 | 0.0 | 0.0 | 0.02 | 0.20 | 0.16 | 99 | 1012.0 |
| 20260507011804 | 57 | 0 | 0.0 | 0.0 | 0.03 | 0.20 | 0.16 | 99 | 1011.9 |
| 20260507010904 | 57 | 0 | 0.0 | 0.0 | 0.03 | 0.20 | 0.16 | 99 | 1011.6 |
| 20260507010004 | 57 | 0 | 0.0 | 0.0 | 0.03 | 0.20 | 0.16 | 99 | 1012.1 |
| 20260507005425 | 57 | 0 | 0.0 | 0.0 | 0.03 | 0.20 | 0.16 | 99 | 1011.9 |